Latest Weather Observations for Holsworthy

IDN60901

Issued at 3:35 pm EST Wednesday 23 July 2014 (issued every 10 minutes, with the page automatically refreshed every 10 minutes)

About weather observations | Map of Sydney area stations | Latest observations for Sydney area | Other Formats
Station Details ID: 066161 Name: HOLSWORTHY AERODROME AWS Lat: -33.99 Lon: 150.95 Height: 68.16 m
Data from the previous 72 hours. | See also: Recent months for locations in New South Wales
Date/Time
EST
Tmp

°C
App
Tmp
°C
Dew
Point
°C
Rel
Hum
%
Delta-T

°C
Wind Press
QNH
hPa
Press
MSL
hPa
Rain
since
9 am
mm
Dir
 
Spd
km/h
Gust
km/h
Spd
kts
Gust
kts
23/03:30pm 17.6 15.2 6.8 49 5.4 NE 9 17 5 9 1021.4 - 0.0
23/03:00pm 17.9 15.9 7.3 50 5.3 N 7 13 4 7 1021.3 1021.4 0.0
23/02:30pm 17.4 14.1 6.3 48 5.5 N 13 17 7 9 1021.6 - 0.0
23/02:00pm 17.4 14.9 6.6 49 5.3 NNE 9 15 5 8 1021.7 1021.8 0.0
23/01:30pm 17.1 14.0 7.2 52 5.0 N 13 17 7 9 1022.0 - 0.0
23/01:00pm 16.3 13.1 6.7 53 4.7 NNE 13 19 7 10 1022.4 1022.5 0.0
23/12:30pm 17.4 14.1 6.6 49 5.4 N 13 19 7 10 1022.9 - 0.0
23/12:00pm 16.3 14.6 8.5 60 4.0 W 7 11 4 6 1023.5 1023.6 0.0
23/11:30am 16.6 14.5 8.1 57 4.3 W 9 19 5 10 1024.3 - 0.0
23/11:00am 15.7 14.0 8.2 61 3.8 WNW 7 15 4 8 1024.8 1024.9 0.0
23/10:30am 14.9 13.3 8.8 67 3.1 W 7 9 4 5 1025.3 - 0.0
23/10:00am 13.6 11.6 8.7 72 2.5 W 9 19 5 10 1025.6 1025.7 0.0
23/09:30am 11.8 9.8 8.6 81 1.6 W 9 11 5 6 1025.5 - 0.0
23/09:00am 10.2 8.2 8.6 90 0.8 W 9 22 5 12 1025.3 1025.4 0.0
23/08:30am 8.5 5.6 8.1 97 0.2 SW 13 15 7 8 1025.2 - 0.0
23/08:00am 7.4 4.7 7.3 99 0.0 WSW 11 15 6 8 1024.9 1025.0 0.0
23/07:30am 6.1 3.8 5.8 98 0.1 WSW 7 9 4 5 1024.7 - 0.0
23/07:00am 5.2 2.7 4.9 98 0.1 WSW 7 11 4 6 1024.4 1024.5 0.0
23/06:40am 5.7 3.5 5.4 98 0.1 SW 6 9 3 5 1024.1 - 0.0
23/06:30am 5.5 3.1 5.1 97 0.2 SW 7 7 4 4 1024.0 - 0.0
23/06:21am 5.8 3.6 5.5 98 0.1 WSW 6 7 3 4 1023.9 - 0.0
23/06:00am 5.6 3.2 5.2 97 0.2 WSW 7 9 4 5 1023.8 1023.9 0.0
23/05:31am 6.3 3.7 6.0 98 0.1 WSW 9 11 5 6 1023.4 - 0.0
23/05:30am 6.2 3.6 5.9 98 0.1 WSW 9 11 5 6 1023.4 - 0.0
23/05:23am 5.7 2.9 5.1 96 0.3 WSW 9 11 5 6 1023.5 - 0.0
23/05:10am 5.8 4.8 5.4 97 0.2 CALM 0 0 0 0 1023.5 - 0.0
23/05:00am 6.2 5.2 5.6 96 0.3 CALM 0 0 0 0 1023.3 1023.4 0.0
23/04:50am 6.2 5.2 5.6 96 0.3 CALM 0 0 0 0 1023.2 - 0.0
23/04:30am 6.5 5.6 5.9 96 0.3 CALM 0 0 0 0 1023.2 - 0.0
23/04:00am 7.0 5.5 6.6 97 0.2 SW 4 7 2 4 1023.0 1023.1 0.0
23/03:30am 7.4 5.4 7.0 97 0.2 WSW 7 11 4 6 1023.1 - 0.0
23/03:00am 7.5 6.4 6.9 96 0.3 SW 2 7 1 4 1023.3 1023.4 0.0
23/02:30am 7.3 5.4 6.7 96 0.3 W 6 7 3 4 1023.7 - 0.0
23/02:00am 7.8 6.8 7.2 96 0.3 NW 2 9 1 5 1023.8 1023.9 0.0
23/01:30am 8.0 6.6 7.4 96 0.3 SW 4 6 2 3 1023.8 - 0.0
23/01:00am 8.5 6.3 7.7 95 0.4 SW 9 11 5 6 1023.9 1024.0 0.0
23/12:30am 8.7 6.1 7.6 93 0.5 SW 11 11 6 6 1023.9 - 0.0
23/12:00am 10.6 8.4 9.4 92 0.6 SSW 11 15 6 8 1023.9 1024.0 0.0
 
Date/Time
EST
Tmp

°C
App
Tmp
°C
Dew
Point
°C
Rel
Hum
%
Delta-T

°C
Wind Press
QNH
hPa
Press
MSL
hPa
Rain
since
9 am
mm
Dir
 
Spd
km/h
Gust
km/h
Spd
kts
Gust
kts
22/11:30pm 10.7 8.1 9.5 92 0.6 SSW 13 15 7 8 1024.1 - 0.0
22/11:00pm 10.7 8.0 9.1 90 0.8 SW 13 17 7 9 1024.3 1024.4 0.0
22/10:30pm 10.8 8.2 9.2 90 0.8 SSW 13 17 7 9 1024.2 - 0.0
22/10:00pm 10.4 7.8 9.2 92 0.6 SW 13 15 7 8 1024.2 1024.3 0.0
22/09:30pm 9.2 6.6 7.8 91 0.7 SW 11 13 6 7 1024.2 - 0.0
22/09:00pm 10.0 7.7 8.9 93 0.5 SW 11 15 6 8 1024.2 1024.3 0.0
22/08:30pm 9.6 7.2 8.7 94 0.4 SW 11 15 6 8 1024.2 - 0.0
22/08:00pm 9.4 7.6 8.0 91 0.7 S 7 9 4 5 1024.3 1024.4 0.0
22/07:30pm 11.2 9.3 8.9 86 1.1 SE 9 11 5 6 1024.2 - 0.0
22/07:00pm 11.6 10.2 9.7 88 1.0 SE 7 9 4 5 1023.8 1023.9 0.0
22/06:30pm 11.5 9.6 9.1 85 1.2 SSE 9 11 5 6 1023.5 - 0.0
22/06:00pm 12.4 11.1 9.8 84 1.3 E 7 11 4 6 1023.2 1023.3 0.0
22/05:30pm 13.2 11.5 9.8 80 1.7 ESE 9 11 5 6 1022.9 - 0.0
22/05:00pm 14.4 12.3 9.8 74 2.4 ESE 11 13 6 7 1022.7 1022.8 0.0
22/04:30pm 15.4 12.9 9.7 69 3.0 ESE 13 17 7 9 1022.4 - 0.0
22/04:00pm 16.0 13.0 9.2 64 3.5 ESE 15 19 8 10 1022.3 1022.4 0.0
22/03:30pm 16.2 13.2 9.4 64 3.5 ESE 15 19 8 10 1022.3 - 0.0
22/03:00pm 15.9 13.6 9.1 64 3.5 ESE 11 17 6 9 1022.2 1022.3 0.0
22/02:30pm 15.9 12.4 8.9 63 3.6 SSE 17 20 9 11 1022.1 - 0.0
22/02:00pm 17.4 15.0 8.5 56 4.6 SE 11 15 6 8 1022.0 1022.1 0.0
22/01:30pm 17.0 15.3 9.7 62 3.8 E 9 13 5 7 1022.2 - 0.0
22/01:00pm 15.8 13.4 8.8 63 3.6 SE 11 15 6 8 1022.4 1022.5 0.0
22/12:30pm 16.1 13.2 8.1 59 4.1 SSE 13 17 7 9 1022.7 - 0.0
22/12:00pm 17.7 16.3 8.8 56 4.6 NE 6 13 3 7 1023.4 1023.5 0.0
22/11:30am 16.7 14.3 8.7 59 4.1 NW 11 20 6 11 1023.9 - 0.0
22/11:00am 15.9 13.8 8.4 61 3.8 NNW 9 13 5 7 1024.3 1024.4 0.0
22/10:30am 15.3 12.8 8.1 62 3.6 SSW 11 20 6 11 1024.8 - 0.0
22/10:00am 14.0 11.9 8.4 69 2.8 WSW 9 15 5 8 1025.0 1025.1 0.0
22/09:30am 12.0 9.0 7.9 76 2.0 WSW 13 19 7 10 1024.8 - 0.0
22/09:00am 11.1 8.4 8.8 86 1.1 WSW 13 22 7 12 1024.6 1024.7 0.0
22/08:30am 8.2 5.2 7.6 96 0.3 WSW 13 15 7 8 1024.6 - 0.0
22/08:00am 6.5 3.5 6.1 97 0.2 SW 11 15 6 8 1024.6 1024.7 0.0
22/07:30am 6.7 3.8 6.4 98 0.1 SW 11 15 6 8 1024.4 - 0.0
22/07:00am 6.2 2.8 5.9 98 0.1 WSW 13 17 7 9 1024.2 1024.3 0.0
22/06:30am 5.5 4.0 5.1 97 0.2 WSW 2 9 1 5 1024.1 - 0.0
22/06:00am 6.2 2.8 5.8 97 0.2 WSW 13 13 7 7 1023.8 1023.9 0.0
22/05:30am 6.5 4.2 5.9 96 0.3 WSW 7 11 4 6 1023.5 - 0.0
22/05:00am 7.3 4.5 6.9 97 0.2 WSW 11 13 6 7 1023.0 1023.1 0.0
22/04:30am 7.6 5.8 7.3 98 0.1 SW 6 9 3 5 1023.1 - 0.0
22/04:00am 7.2 4.0 6.9 98 0.1 WSW 13 15 7 8 1023.0 1023.1 0.0
22/03:30am 7.0 4.5 6.6 97 0.2 SW 9 13 5 7 1023.0 - 0.0
22/03:00am 6.8 4.2 6.1 95 0.3 SW 9 9 5 5 1022.9 1023.0 0.0
22/02:30am 7.8 5.4 7.2 96 0.3 WSW 9 9 5 5 1023.1 - 0.0
22/02:00am 8.2 5.6 7.6 96 0.3 SW 11 13 6 7 1023.3 1023.4 0.0
22/01:30am 8.2 5.9 7.6 96 0.3 SW 9 13 5 7 1023.5 - 0.0
22/01:00am 8.6 6.4 8.0 96 0.3 SSW 9 11 5 6 1023.8 1023.9 0.0
22/12:30am 8.2 5.6 7.8 97 0.2 WSW 11 13 6 7 1023.9 - 0.0
22/12:00am 8.0 4.9 7.2 95 0.4 SW 13 15 7 8 1023.9 1024.0 0.0
 
Date/Time
EST
Tmp

°C
App
Tmp
°C
Dew
Point
°C
Rel
Hum
%
Delta-T

°C
Wind Press
QNH
hPa
Press
MSL
hPa
Rain
since
9 am
mm
Dir
 
Spd
km/h
Gust
km/h
Spd
kts
Gust
kts
21/11:30pm 9.0 6.1 8.2 95 0.4 SW 13 17 7 9 1024.1 - 0.0
21/11:00pm 9.3 6.2 8.7 96 0.3 SW 15 19 8 10 1024.3 1024.4 0.0
21/10:30pm 8.9 6.3 7.8 93 0.5 SW 11 15 6 8 1024.3 - 0.0
21/10:00pm 10.1 7.5 9.2 94 0.4 SW 13 17 7 9 1024.4 1024.5 0.0
21/09:30pm 10.1 7.5 9.3 95 0.4 SW 13 17 7 9 1024.4 - 0.0
21/09:00pm 9.3 7.3 8.5 95 0.4 WSW 9 13 5 7 1024.5 1024.6 0.0
21/08:30pm 9.0 7.1 7.6 91 0.7 WSW 7 9 4 5 1024.5 - 0.0
21/08:00pm 10.0 8.5 8.4 90 0.8 WSW 6 11 3 6 1024.3 1024.4 0.0
21/07:30pm 11.2 9.8 9.6 90 0.8 ESE 7 13 4 7 1024.2 - 0.0
21/07:00pm 11.2 9.9 9.3 88 0.9 SE 6 19 3 10 1024.2 1024.3 0.0
21/06:30pm 11.1 10.8 8.7 85 1.2 CALM 0 0 0 0 1023.9 - 0.0
21/06:00pm 12.3 10.5 9.5 83 1.4 SE 9 11 5 6 1023.7 1023.8 0.0
21/05:30pm 12.9 11.1 9.5 80 1.7 SE 9 13 5 7 1023.5 - 0.0
21/05:00pm 13.6 11.5 9.6 77 2.0 SSE 11 13 6 7 1023.5 1023.6 0.0
21/04:30pm 14.3 11.7 9.5 73 2.5 SE 13 19 7 10 1023.4 - 0.0
21/04:00pm 14.6 12.0 9.4 71 2.7 SE 13 17 7 9 1023.4 1023.5 0.0
21/03:30pm 15.3 12.0 9.4 68 3.1 ESE 17 22 9 12 1023.2 - 0.0
21/03:00pm 15.9 13.3 9.3 65 3.4 SE 13 19 7 10 1023.2 1023.3 0.0
21/02:30pm 16.0 13.3 9.0 63 3.6 ESE 13 17 7 9 1023.1 - 0.0
21/02:00pm 15.9 11.9 8.4 61 3.8 SE 19 26 10 14 1023.1 1023.2 0.0
21/01:30pm 16.5 14.3 8.0 57 4.3 SSE 9 20 5 11 1023.2 - 0.0
21/01:00pm 16.0 13.6 8.5 61 3.8 ESE 11 15 6 8 1023.5 1023.6 0.0
21/12:30pm 16.3 13.1 7.0 54 4.6 S 13 17 7 9 1023.9 - 0.0
21/12:00pm 17.0 15.0 7.1 52 4.9 SW 7 13 4 7 1024.6 1024.7 0.0
21/11:30am 15.8 12.9 6.5 54 4.6 WNW 11 24 6 13 1025.2 - 0.0
21/11:00am 14.6 11.6 5.9 56 4.1 W 11 13 6 7 1025.9 1026.0 0.0
21/10:30am 13.3 9.7 5.2 58 3.8 W 13 17 7 9 1026.3 - 0.0
21/10:00am 12.8 10.2 5.9 63 3.2 W 9 13 5 7 1026.6 1026.7 0.0
21/09:30am 11.5 9.1 5.4 66 2.8 W 7 11 4 6 1026.7 - 0.0
21/09:00am 10.1 6.9 5.1 71 2.3 WSW 11 15 6 8 1026.8 1026.9 0.0
21/08:30am 7.6 4.2 4.2 79 1.5 WSW 11 13 6 7 1026.8 - 0.0
21/08:00am 5.8 3.1 3.6 86 0.9 W 7 9 4 5 1026.7 1026.8 0.0
21/07:30am 5.6 1.7 3.4 86 0.9 WSW 13 15 7 8 1026.4 - 0.0
21/07:00am 5.7 1.8 3.5 86 0.9 WSW 13 17 7 9 1026.1 1026.2 0.0
21/06:30am 5.9 2.1 3.7 86 0.9 WSW 13 17 7 9 1026.1 - 0.0
21/06:00am 6.3 2.5 4.0 85 1.0 SW 13 17 7 9 1026.0 1026.1 0.0
21/05:30am 6.4 2.3 4.1 85 1.0 SW 15 20 8 11 1025.8 - 0.0
21/05:00am 5.8 2.0 4.1 89 0.7 WSW 13 17 7 9 1025.7 1025.8 0.0
21/04:30am 6.1 2.7 4.1 87 0.9 W 11 15 6 8 1025.7 - 0.0
21/04:00am 6.5 2.8 4.3 86 0.9 WSW 13 17 7 9 1025.5 1025.6 0.0
21/03:30am 6.8 2.7 4.6 86 1.0 WSW 15 19 8 10 1025.3 - 0.0
21/03:00am 6.5 2.5 4.8 89 0.7 WSW 15 19 8 10 1025.3 1025.4 0.0
21/02:30am 6.0 1.6 4.6 91 0.6 WSW 17 20 9 11 1025.3 - 0.0
21/02:00am 6.2 2.2 4.7 90 0.6 SW 15 20 8 11 1025.6 1025.7 0.0
21/01:30am 6.4 2.0 4.7 89 0.7 SW 17 20 9 11 1025.6 - 0.0
21/01:00am 6.4 2.8 5.0 91 0.6 WSW 13 17 7 9 1025.6 1025.7 0.0
21/12:30am 6.3 3.4 4.8 90 0.7 WSW 9 11 5 6 1025.8 - 0.0
21/12:00am 7.1 3.9 5.1 87 0.9 WSW 11 13 6 7 1025.9 1026.0 0.0
 
Date/Time
EST
Tmp

°C
App
Tmp
°C
Dew
Point
°C
Rel
Hum
%
Delta-T

°C
Wind Press
QNH
hPa
Press
MSL
hPa
Rain
since
9 am
mm
Dir
 
Spd
km/h
Gust
km/h
Spd
kts
Gust
kts
20/11:30pm 7.5 4.3 5.3 86 1.0 SW 11 15 6 8 1026.0 - 0.0
20/11:00pm 7.5 4.0 5.5 87 0.9 WSW 13 15 7 8 1026.2 1026.3 0.0
20/10:30pm 7.4 4.3 5.7 89 0.8 W 11 15 6 8 1026.5 - 0.0
20/10:00pm 7.6 4.6 5.9 89 0.8 WSW 11 13 6 7 1026.2 1026.3 0.0
20/09:30pm 7.6 4.9 5.6 87 0.9 WSW 9 11 5 6 1026.3 - 0.0
20/09:00pm 7.9 5.2 5.7 86 1.0 W 9 11 5 6 1026.3 1026.4 0.0
20/08:30pm 8.9 6.7 6.0 82 1.3 WSW 7 9 4 5 1026.1 - 0.0
20/08:00pm 11.1 8.3 7.0 76 1.9 SSE 11 15 6 8 1026.0 1026.1 0.0
20/07:30pm 11.6 8.5 7.3 75 2.1 SSE 13 17 7 9 1025.9 - 0.0
20/07:00pm 11.6 8.8 7.1 74 2.1 SSE 11 13 6 7 1025.8 1025.9 0.0
20/06:30pm 12.5 9.4 7.2 70 2.6 SSE 13 17 7 9 1025.6 - 0.0
20/06:00pm 12.7 9.6 7.2 69 2.7 SSE 13 17 7 9 1025.4 1025.5 0.0
20/05:30pm 12.8 9.6 7.0 68 2.8 SSE 13 17 7 9 1025.2 - 0.0
20/05:00pm 13.4 9.9 7.0 65 3.1 SSE 15 24 8 13 1025.0 1025.1 0.0
20/04:30pm 14.3 10.0 6.9 61 3.6 SSE 19 26 10 14 1024.9 - 0.0
20/04:00pm 14.5 10.5 6.8 60 3.7 SSE 17 24 9 13 1025.0 1025.1 0.0

Latest Capital City Observations: Canberra | Sydney | Melbourne | Brisbane | Adelaide | Perth | Hobart | Darwin

Other Formats:

Comma delimited format used in spreadsheet applications
http://www.bom.gov.au/fwo/IDN60901/IDN60901.95761.axf

JavaScript Object Notation format (JSON) in row-major order
http://www.bom.gov.au/fwo/IDN60901/IDN60901.95761.json